Boulder City, Nevada Weather observations

Data are for observation ending at time listed.
 Day   Time    Ave.   Ave.  Ave.  Vector   Max.   Stn.    Total    Solar   Ave.  
  of    of     Air    Rel.  Wind   Wind    Wind   Baro.  Precip.   Rad.    Soil  
Year   Day     Temp.  Hum.  Speed  Dir.    Gust   Pres.                    Temp. 
2026   (PST)    F      %     mph   deg.    mph     mb.     in.     W/m2     F   
------------------------------------------------------------------------------
 123   14:00   89.0    10   10.4   164     18.8   924.8    0.00     426    86.0
 123   14:10   87.1    11    8.5   156     17.9   924.6    0.00     287    86.3
 123   14:20   87.4    11    9.4   136     23.3   924.3    0.00     571    86.5
 123   14:30   87.8    11    7.7   140     22.8   924.0    0.00     232    86.7
 123   14:40   86.8    11    8.0   141     16.9   923.8    0.00     149    86.8
 123   14:50   86.4    11    8.4   141     20.0   923.5    0.00     348    87.0
 123   15:00   88.2    10   11.9   162     22.5   923.5    0.00     481    87.2
 123   15:10   87.9    10   12.8   157     28.9   923.4    0.00     587    87.3
 123   15:20   89.0     9   10.9   145     22.6   923.4    0.00     476    87.5
 123   15:30   89.2     9   13.4   179     22.4   923.5    0.00     566    87.6
 123   15:40   88.8     9   11.8   164     22.8   923.5    0.00     472    87.7
 123   15:50   88.2     9   12.4   173     20.8   923.4    0.00     221    87.7
 123   16:00   87.0     9   12.2   175     22.4   923.3    0.00     203    87.8
 123   16:10   86.5     9   13.9   172     25.6   923.3    0.00      93    87.8
 123   16:20   86.0     9   12.5   176     22.0   923.0    0.00      95    87.9
 123   16:30   86.6     9   10.3   149     20.3   922.9    0.00     231    87.9
 123   16:40   86.4     9   12.3   160     27.3   922.9    0.00     119    87.9
 123   16:50   85.8    10   10.6   159     22.0   922.9    0.00     141    87.9
 123   17:00   86.1    10   11.6   171     19.1   922.9    0.00      83    87.9
 123   17:10   85.9    10    9.6   157     20.0   922.7    0.00     206    87.9
 123   17:20   86.1     9   10.8   181     20.4   922.6    0.00     103    87.8
 123   17:30   85.6    10    9.4   171     17.0   922.5    0.00      71    87.8
 123   17:40   85.1    10   10.5   172     21.3   922.5    0.00      57    87.7
 123   17:50   84.7    10   10.7   166     23.3   922.4    0.00      42    87.7
 123   18:00   84.3    10   10.2   164     25.6   922.4    0.00      30    87.6
 123   18:10   84.0    10    9.0   168     20.5   922.4    0.00      22    87.6
 123   18:20   83.8    10    9.2   167     22.7   922.4    0.00      13    87.5
 123   18:30   83.4    10   12.0   180     18.8   922.4    0.00       5    87.4
 123   18:40   83.0    10   10.8   176     18.9   922.4    0.00       2    87.4
 123   18:50   82.7    10   11.9   178     22.4   922.5    0.00       0    87.3
 123   19:00   82.1    11   10.8   184     19.1   922.6    0.00       0    87.2
 123   19:10   81.5    11    8.7   186     15.3   922.6    0.00       0    87.1
 123   19:20   81.1    11    9.5   188     15.1   922.7    0.00       0    87.0
 123   19:30   80.7    11    8.3   183     14.6   922.7    0.00       0    87.0
 123   19:40   80.0    11    6.5   197     11.2   923.0    0.00       0    86.9
 123   19:50   79.4    12    5.8   201      9.6   923.1    0.00       0    86.7
 123   20:00   79.1    12    5.8   200     11.2   923.1    0.00       0    86.6
 123   20:10   78.7    12    6.2   202      9.9   923.1    0.00       0    86.5
 123   20:20   78.6    12    6.8   207     11.4   923.1    0.00       0    86.4
 123   20:30   78.5    12    7.3   205     13.2   923.2    0.00       0    86.3
 123   20:40   78.3    12    7.9   209     14.2   923.2    0.00       0    86.2
 123   20:50   77.8    12    7.4   222     11.5   923.2    0.00       0    86.1
 123   21:00   77.2    12    7.1   225     11.5   923.1    0.00       0    85.9
 123   21:10   76.5    13    6.3   216      9.5   923.1    0.00       0    85.8
 123   21:20   76.6    12    6.3   213     12.9   923.2    0.00       0    85.7
 123   21:30   76.7    12    6.1   214     10.5   923.3    0.00       0    85.6
 123   21:40   76.0    12    4.7   212      8.0   923.3    0.00       0    85.4
 123   21:50   75.5    12    3.9   209      7.0   923.3    0.00       0    85.3
 123   22:00   75.1    12    5.0   197     10.4   923.3    0.00       0    85.2
 123   22:10   75.1    12    6.2   214      9.6   923.2    0.00       0    85.1
 123   22:20   74.8    12    5.1   213      8.2   923.0    0.00       0    85.0
 123   22:30   74.4    12    4.0   210      6.1   923.1    0.00       0    84.8
 123   22:40   74.2    12    3.2   174      9.2   923.2    0.00       0    84.7
 123   22:50   74.1    12    7.8   117     15.0   923.6    0.00       0    84.5
 123   23:00   74.8    12    5.5   179     10.6   923.7    0.00       0    84.4
 123   23:10   74.6    12    5.6   216      8.4   923.9    0.00       0    84.3
 123   23:20   74.6    12    6.2   223     10.0   924.0    0.00       0    84.2
 123   23:30   74.2    12    5.8   224      9.7   923.9    0.00       0    84.1
 123   23:40   73.6    13    4.7   226      7.0   923.9    0.00       0    83.9
 123   23:50   73.1    13    4.2   230      6.2   923.9    0.00       0    83.8
 124    0:00   72.6    13    5.3   228      8.3   923.8    0.00       0    83.7
 124    0:10   72.2    14    6.6   230     11.2   923.8    0.00       0    83.6
 124    0:20   72.5    14    7.3   229     10.9   924.0    0.00       0    83.4
 124    0:30   72.2    14    7.5   224     10.7   924.1    0.00       0    83.3
 124    0:40   71.8    14    7.1   220      9.5   924.0    0.00       0    83.2
 124    0:50   71.2    15    7.9   225     10.7   923.8    0.00       0    83.1
 124    1:00   71.0    15    5.6   212     10.2   924.0    0.00       0    83.0
 124    1:10   70.9    16    6.2   216      9.3   924.1    0.00       0    82.8
 124    1:20   70.5    18    5.1   221      8.5   923.9    0.00       0    82.7
 124    1:30   69.7    20    4.6   224      7.5   924.1    0.00       0    82.6
 124    1:40   69.5    22    4.3   224      6.3   924.1    0.00       0    82.5
 124    1:50   69.5    22    3.5   219      5.7   924.1    0.00       0    82.4
 124    2:00   69.2    22    3.2   213      4.5   924.0    0.00       0    82.3
 124    2:10   68.8    22    3.2   208      4.5   924.0    0.00       0    82.1
 124    2:20   68.6    23    3.7   191      5.4   924.0    0.00       0    82.0
 124    2:30   68.3    24    3.9   220      5.8   923.9    0.00       0    81.9
 124    2:40   68.1    24    3.8   215      5.4   924.0    0.00       0    81.8
 124    2:50   68.1    25    4.3   213      6.3   924.1    0.00       0    81.7
 124    3:00   67.8    26    4.2   221      5.9   924.0    0.00       0    81.6
 124    3:10   67.3    27    4.0   237      6.7   924.2    0.00       0    81.5
 124    3:20   67.3    27    5.0   242      7.9   924.1    0.00       0    81.4
 124    3:30   67.6    27    4.7   227      8.5   924.1    0.00       0    81.3
 124    3:40   67.0    27    2.8   208      3.8   924.1    0.00       0    81.2
 124    3:50   66.9    28    3.5   212      6.1   924.0    0.00       0    81.1
 124    4:00   67.1    27    3.3   199      5.5   923.8    0.00       0    80.9
 124    4:10   67.5    27    6.7   179     12.3   923.8    0.00       0    80.8
 124    4:20   67.9    27    8.6   184     15.9   923.8    0.00       0    80.7
 124    4:30   67.6    27    8.1   183     11.8   923.9    0.00       0    80.6
 124    4:40   66.5    28    7.1   200     14.0   923.9    0.00       1    80.5
 124    4:50   65.7    28    8.0   211     14.1   924.0    0.00       2    80.4
 124    5:00   65.5    28    5.7   221     11.0   924.2    0.00       6    80.3
 124    5:10   64.3    29    4.9   228      7.7   924.3    0.00      16    80.2
 124    5:20   64.0    30    6.0   230      9.0   924.3    0.00      31    80.1
 124    5:30   64.4    29    6.4   228     11.3   924.5    0.00      40    80.0
 124    5:40   64.7    29    6.8   219     11.8   924.6    0.00      52    79.9
 124    5:50   64.4    30    6.5   218     11.8   924.6    0.00      68    79.8
 124    6:00   64.2    30    6.9   223     13.3   924.8    0.00      96    79.7
 124    6:10   64.6    30    5.1   208      8.2   924.9    0.00     108    79.5
 124    6:20   64.8    30    5.3   213      9.1   925.0    0.00     139    79.4
 124    6:30   65.0    30    5.7   221      9.5   925.1    0.00     150    79.3
 124    6:40   65.4    29    6.1   205     11.1   925.2    0.00     185    79.2
 124    6:50   65.8    29    6.3   208     11.0   925.3    0.00     189    79.1
 124    7:00   66.0    29    6.4   185     10.6   925.4    0.00     206    79.0
 124    7:10   66.3    28    7.0   186     11.5   925.6    0.00     226    78.9
 124    7:20   66.4    28    7.8   199     13.2   925.8    0.00     235    78.9
 124    7:30   66.7    28    8.2   196     12.6   925.7    0.00     286    78.8
 124    7:40   67.3    27    7.6   203     12.8   925.8    0.00     296    78.7
 124    7:50   67.4    27    8.4   209     13.2   925.9    0.00     369    78.6
 124    8:00   68.3    26    7.4   200     12.1   926.0    0.00     360    78.6
 124    8:10   69.1    27    7.9   169     13.8   926.1    0.00     480    78.5
 124    8:20   69.3    28    6.4   154     13.9   926.2    0.00     526    78.4
 124    8:30   70.0    26    7.8   145     17.5   926.2    0.00     509    78.4
 124    8:40   69.6    27    7.4   155     15.2   926.3    0.00     453    78.3
 124    8:50   70.2    25    6.9   156     13.7   926.3    0.00     447    78.4
 124    9:00   69.9    25    9.8   147     19.1   926.5    0.00     531    78.4
 124    9:10   70.3    24    8.7   144     17.4   926.4    0.00     515    78.4
 124    9:20   70.5    25    7.8   129     14.6   926.4    0.00     527    78.4
 124    9:30   71.0    25    5.7   136     16.8   926.4    0.00     541    78.4
 124    9:40   71.1    24    7.8   137     15.1   926.6    0.00     500    78.5
 124    9:50   71.3    24    6.1   124     14.5   926.7    0.00     599    78.5
 124   10:00   71.5    24    9.1   131     20.6   926.7    0.00     489    78.5
 124   10:10   71.5    23    8.3   136     22.1   926.7    0.00     592    78.6
 124   10:20   71.4    23    7.9   140     21.8   926.6    0.00     546    78.7
 124   10:30   71.3    24    9.4   153     18.9   926.6    0.00     645    78.8
 124   10:40   71.4    24    9.2   143     20.2   926.5    0.00     601    78.8
 124   10:50   71.4    24    8.8   128     17.8   926.5    0.00     716    79.0
 124   11:00   71.8    23   10.0   157     25.9   926.4    0.00     633    79.1
 124   11:10   71.8    23    8.6   159     20.8   926.2    0.00     762    79.2
 124   11:20   72.7    22   10.5   146     22.8   926.2    0.00     700    79.3
 124   11:30   72.6    22    9.2   141     18.2   926.2    0.00     727    79.4
 124   11:40   72.8    22   10.6   146     22.6   926.2    0.00    1004    79.6
 124   11:50   73.4    22    9.2   129     21.7   926.1    0.00     853    79.7
 124   12:00   74.1    21   10.7   141     19.4   926.0    0.00     965    79.8
 124   12:10   73.5    22   11.1   145     23.5   926.0    0.00     904    80.0
 124   12:20   73.3    21    9.9   146     23.1   925.9    0.00     676    80.1
 124   12:30   74.1    20    9.8   129     22.5   925.9    0.00     829    80.3
 124   12:40   74.2    20   10.1   135     20.6   925.8    0.00     789    80.5
 124   12:50   74.9    19    7.6   141     19.0   925.8    0.00     894    80.6
 124   13:00   75.8    18    9.5   153     18.9   925.6    0.00     782    80.9
 124   13:10   75.8    18   11.0   151     22.0   925.8    0.00     894    81.1
 124   13:20   75.5    18   10.9   143     24.4   925.7    0.00     731    81.2
 124   13:30   75.8    19    8.0   131     25.0   925.7    0.00     598    81.4
 124   13:40   74.8    19    9.8   142     23.3   925.7    0.00     738    81.6
 124   13:50   75.7    18   10.5   148     20.2   925.4    0.00     801    81.8

Return to Boulder City, Nevada graphs page.


Western Regional Climate Center,wrcc@dri.edu